Location: Mt. Bigelow
(32.4165°N, 110.7345°W)
Time: 13:01:44
(UTC-07:00)

Tiangong 1 - Visible Passes

Search period start: 22 November 2017 00:00
Search period end: 02 December 2017 00:00
Orbit: 284 x 308 km, 42.8° (Epoch: 22 November)

Date Brightness Start Highest point End Pass type
(mag) Time Alt. Az. Time Alt. Az. Time Alt. Az.
22 Nov 1.3 18:30:45 10° SW 18:33:09 36° SE 18:33:14 36° SE visible
23 Nov 0.4 18:37:14 10° WSW 18:39:47 77° NNW 18:39:51 76° NNW visible
24 Nov 1.9 18:44:01 10° W 18:46:14 31° NNW 18:46:14 31° NNW visible
25 Nov 3.0 18:51:00 10° WNW 18:52:25 17° NW 18:52:25 17° NW visible
26 Nov 3.6 18:58:10 10° NW 18:58:24 11° NW 18:58:24 11° NW visible
29 Nov 3.2 17:41:32 10° NW 17:42:30 11° NNW 17:43:27 10° N visible
